2022-07-18 00:06:03 r, 20.69m,0000000001Hz,0001023741c,0000002.222s, 037.7C,00002191
2022-07-18 00:16:03 r, 21.52m,0000000001Hz,0002175184c,0000004.720s, 037.3C,00002191
2022-07-18 00:26:05 r, 20.91m,0000000000Hz,0001256528c,0000002.727s, 037.0C,00002191
2022-07-18 00:36:03 r, 20.74m,0000000000Hz,0001068513c,0000002.319s, 037.0C,00002191
2022-07-18 00:46:03 r, 20.12m,0000000001Hz,0000607419c,0000001.318s, 036.7C,00002191
2022-07-18 00:56:03 r, 19.86m,0000000001Hz,0000479018c,0000001.040s, 036.4C,00002191
2022-07-18 01:06:05 r, 19.75m,0000000001Hz,0000432013c,0000000.938s, 036.4C,00002191
2022-07-18 01:16:03 r, 19.73m,0000000001Hz,0000422445c,0000000.917s, 036.0C,00002191
2022-07-18 01:26:04 r, 19.45m,0000000001Hz,0000329277c,0000000.715s, 036.0C,00002191
2022-07-18 01:36:04 r, 19.46m,0000000001Hz,0000331473c,0000000.719s, 035.7C,00002191
2022-07-18 01:46:03 r, 19.48m,0000000002Hz,0000337004c,0000000.731s, 035.4C,00002191
2022-07-18 01:56:05 r, 19.37m,0000000001Hz,0000306223c,0000000.665s, 035.4C,00002191
2022-07-18 02:06:04 r, 19.37m,0000000001Hz,0000304234c,0000000.660s, 035.4C,00002191
2022-07-18 02:16:03 r, 19.41m,0000000001Hz,0000315888c,0000000.686s, 035.4C,00002191
2022-07-18 02:26:05 r, 19.27m,0000000002Hz,0000277452c,0000000.602s, 035.4C,00002191
2022-07-18 02:36:04 r, 19.35m,0000000002Hz,0000299400c,0000000.650s, 035.4C,00002191
2022-07-18 02:46:03 r, 19.64m,0000000001Hz,0000390476c,0000000.847s, 035.4C,00002191
2022-07-18 02:56:04 r, 19.70m,0000000001Hz,0000409710c,0000000.889s, 035.1C,00002191
2022-07-18 03:06:04 r, 19.87m,0000000001Hz,0000481073c,0000001.044s, 034.8C,00002191
2022-07-18 03:16:03 r, 19.79m,0000000001Hz,0000448289c,0000000.973s, 034.8C,00002191
2022-07-18 03:26:04 r, 19.86m,0000000001Hz,0000476856c,0000001.035s, 034.4C,00002191
2022-07-18 03:36:04 r, 19.56m,0000000001Hz,0000363877c,0000000.790s, 034.4C,00002191
2022-07-18 03:46:03 r, 19.75m,0000000001Hz,0000432089c,0000000.938s, 034.1C,00002191
2022-07-18 03:56:05 r, 18.60m,0000000010Hz,0000149845c,0000000.325s, 033.5C,00002191
2022-07-18 04:06:04 r, 19.58m,0000000002Hz,0000368743c,0000000.800s, 032.8C,00002191
2022-07-18 04:16:03 r, 19.29m,0000000004Hz,0000284150c,0000000.617s, 032.2C,00002191
2022-07-18 04:26:05 r, 19.70m,0000000002Hz,0000412177c,0000000.894s, 031.9C,00002191
2022-07-18 04:36:04 r, 18.05m,0000000005Hz,0000090359c,0000000.196s, 031.9C,00002191
2022-07-18 04:46:03 r, 17.54m,0000000009Hz,0000056725c,0000000.123s, 032.2C,00002191
2022-07-18 04:56:04 r, 16.59m,0000000020Hz,0000023647c,0000000.051s, 032.2C,00002191
2022-07-18 05:06:04 r, 15.43m,0000000068Hz,0000008166c,0000000.018s, 032.5C,00002191
2022-07-18 05:16:03 r, 13.65m,0000000292Hz,0000000000c,0000000.000s, 032.5C,00002191
2022-07-18 05:26:03 r, 12.49m,0000000854Hz,0000000000c,0000000.000s, 032.5C,00002191
2022-07-18 05:36:05 r, 11.49m,0000002146Hz,0000000000c,0000000.000s, 032.8C,00002191
2022-07-18 05:46:03 r, 10.33m,0000006209Hz,0000000000c,0000000.000s, 032.8C,00002191
2022-07-18 05:56:04 r, 09.59m,0000012379Hz,0000000000c,0000000.000s, 032.8C,00002191
2022-07-18 06:06:04 r, 09.02m,0000020888Hz,0000000000c,0000000.000s, 032.8C,00002191
2022-07-18 06:16:03 r, 08.81m,0000025322Hz,0000000000c,0000000.000s, 032.8C,00002191
2022-07-18 06:26:05 r, 08.46m,0000035301Hz,0000000000c,0000000.000s, 032.8C,00002191
2022-07-18 06:36:04 r, 06.81m,0000160316Hz,0000000000c,0000000.000s, 032.8C,00002191
2022-07-18 06:46:03 r, 05.85m,0000385824Hz,0000000000c,0000000.000s, 032.8C,00002191
2022-07-18 06:56:05 r, 00.00m,0000502733Hz,0000000000c,0000000.000s, 033.1C,00002191
2022-07-18 07:06:04 r, 06.76m,0000167376Hz,0000000000c,0000000.000s, 033.1C,00002191
2022-07-18 07:16:03 r, 06.45m,0000221836Hz,0000000000c,0000000.000s, 032.8C,00002191
2022-07-18 07:26:04 r, 06.49m,0000215388Hz,0000000000c,0000000.000s, 033.1C,00002191
2022-07-18 07:36:05 r, 00.00m,0000595921Hz,0000000000c,0000000.000s, 033.5C,00002191
2022-07-18 07:46:03 r, 00.00m,0000497196Hz,0000000000c,0000000.000s, 034.1C,00002191
2022-07-18 07:56:04 r, 06.03m,0000329666Hz,0000000000c,0000000.000s, 034.1C,00002191
2022-07-18 08:06:04 r, 06.61m,0000192468Hz,0000000000c,0000000.000s, 033.8C,00002191
2022-07-18 08:16:03 r, 06.51m,0000209032Hz,0000000000c,0000000.000s, 033.8C,00002191
2022-07-18 08:26:06 r, 00.00m,0000595998Hz,0000000000c,0000000.000s, 033.8C,00002191
2022-07-18 08:36:04 r, 00.00m,0000595941Hz,0000000000c,0000000.000s, 034.1C,00002191
2022-07-18 08:46:03 r, 00.00m,0000595881Hz,0000000000c,0000000.000s, 034.4C,00002191
2022-07-18 08:56:06 r, 00.00m,0000595782Hz,0000000000c,0000000.000s, 035.1C,00002191
2022-07-18 09:06:04 r, 00.00m,0000595750Hz,0000000000c,0000000.000s, 036.0C,00002191
2022-07-18 09:16:03 r, 00.00m,0000595670Hz,0000000000c,0000000.000s, 036.0C,00002191
2022-07-18 09:26:04 r, 00.00m,0000595687Hz,0000000000c,0000000.000s, 036.0C,00002191
2022-07-18 09:36:05 r, 00.00m,0000595277Hz,0000000000c,0000000.000s, 038.3C,00002191
2022-07-18 09:46:03 r, 00.00m,0000595202Hz,0000000000c,0000000.000s, 039.6C,00002191
2022-07-18 09:56:05 r, 00.00m,0000595277Hz,0000000000c,0000000.000s, 039.6C,00002191
2022-07-18 10:06:04 r, 00.00m,0000595296Hz,0000000000c,0000000.000s, 039.3C,00002191
2022-07-18 10:16:03 r, 00.00m,0000595305Hz,0000000000c,0000000.000s, 039.0C,00002191
2022-07-18 10:26:04 r, 00.00m,0000595199Hz,0000000000c,0000000.000s, 039.6C,00002191
2022-07-18 10:36:06 r, 00.00m,0000595175Hz,0000000000c,0000000.000s, 040.6C,00002191
2022-07-18 10:46:03 r, 00.00m,0000595029Hz,0000000000c,0000000.000s, 040.9C,00002191
2022-07-18 10:56:03 r, 00.00m,0000594350Hz,0000000000c,0000000.000s, 044.8C,00002191
2022-07-18 11:06:04 r, 00.00m,0000594388Hz,0000000000c,0000000.000s, 045.4C,00002191
2022-07-18 11:16:03 r, 00.00m,0000594663Hz,0000000000c,0000000.000s, 045.1C,00002191
2022-07-18 11:26:04 r, 00.00m,0000594948Hz,0000000000c,0000000.000s, 042.8C,00002191
2022-07-18 11:36:05 r, 00.00m,0000595101Hz,0000000000c,0000000.000s, 041.5C,00002191
2022-07-18 11:46:03 r, 00.00m,0000595191Hz,0000000000c,0000000.000s, 041.2C,00002191
2022-07-18 11:56:05 r, 00.00m,0000595007Hz,0000000000c,0000000.000s, 041.5C,00002191
2022-07-18 12:06:04 r, 00.00m,0000594922Hz,0000000000c,0000000.000s, 041.9C,00002191
2022-07-18 12:16:03 r, 00.00m,0000594786Hz,0000000000c,0000000.000s, 042.8C,00002191
2022-07-18 12:26:04 r, 00.00m,0000594882Hz,0000000000c,0000000.000s, 042.8C,00002191
2022-07-18 12:36:06 r, 00.00m,0000594933Hz,0000000000c,0000000.000s, 042.8C,00002191
2022-07-18 12:46:03 r, 00.00m,0000594869Hz,0000000000c,0000000.000s, 043.1C,00002191
2022-07-18 12:56:03 r, 00.00m,0000594817Hz,0000000000c,0000000.000s, 042.8C,00002191
2022-07-18 13:06:04 r, 00.00m,0000594722Hz,0000000000c,0000000.000s, 043.8C,00002191
2022-07-18 13:16:03 r, 00.00m,0000594727Hz,0000000000c,0000000.000s, 043.8C,00002191
2022-07-18 13:26:03 r, 00.00m,0000594850Hz,0000000000c,0000000.000s, 043.5C,00002191
2022-07-18 13:36:04 r, 00.00m,0000595026Hz,0000000000c,0000000.000s, 042.2C,00002191
2022-07-18 13:46:03 r, 00.00m,0000595007Hz,0000000000c,0000000.000s, 042.2C,00002191
2022-07-18 13:56:03 r, 00.00m,0000594800Hz,0000000000c,0000000.000s, 042.8C,00002191
2022-07-18 14:06:06 r, 00.00m,0000594560Hz,0000000000c,0000000.000s, 045.1C,00002191
2022-07-18 14:16:03 r, 00.00m,0000593687Hz,0000000000c,0000000.000s, 049.3C,00002191
2022-07-18 14:26:03 r, 00.00m,0000593178Hz,0000000000c,0000000.000s, 052.2C,00002191
2022-07-18 14:36:06 r, 00.00m,0000593215Hz,0000000000c,0000000.000s, 052.2C,00002191
2022-07-18 14:46:03 r, 00.00m,0000593293Hz,0000000000c,0000000.000s, 051.8C,00002191
2022-07-18 14:56:03 r, 00.00m,0000593062Hz,0000000000c,0000000.000s, 053.1C,00002191
2022-07-18 15:06:04 r, 00.00m,0000592998Hz,0000000000c,0000000.000s, 053.8C,00002191
2022-07-18 15:16:03 r, 00.00m,0000592814Hz,0000000000c,0000000.000s, 054.4C,00002191
2022-07-18 15:26:03 r, 00.00m,0000592830Hz,0000000000c,0000000.000s, 054.4C,00002191
2022-07-18 15:36:04 r, 00.00m,0000592912Hz,0000000000c,0000000.000s, 054.1C,00002191
2022-07-18 15:46:03 r, 00.00m,0000593059Hz,0000000000c,0000000.000s, 053.5C,00002191
2022-07-18 15:56:03 r, 00.00m,0000592961Hz,0000000000c,0000000.000s, 053.8C,00002191
2022-07-18 16:06:03 r, 00.00m,0000592922Hz,0000000000c,0000000.000s, 053.8C,00002191
2022-07-18 16:16:03 r, 00.00m,0000593005Hz,0000000000c,0000000.000s, 053.5C,00002191
2022-07-18 16:26:03 r, 00.00m,0000593034Hz,0000000000c,0000000.000s, 053.5C,00002191
2022-07-18 16:36:06 r, 00.00m,0000593214Hz,0000000000c,0000000.000s, 052.5C,00002191
2022-07-18 16:46:04 r, 00.00m,0000593423Hz,0000000000c,0000000.000s, 051.5C,00002191
2022-07-18 16:56:03 r, 00.00m,0000593518Hz,0000000000c,0000000.000s, 050.2C,00002191
2022-07-18 17:06:04 r, 00.00m,0000593806Hz,0000000000c,0000000.000s, 048.9C,00002191
2022-07-18 17:16:05 r, 00.00m,0000594031Hz,0000000000c,0000000.000s, 047.3C,00002191
2022-07-18 17:26:03 r, 00.00m,0000593931Hz,0000000000c,0000000.000s, 048.0C,00002191
2022-07-18 17:36:05 r, 00.00m,0000594000Hz,0000000000c,0000000.000s, 047.7C,00002191
2022-07-18 17:46:04 r, 00.00m,0000593971Hz,0000000000c,0000000.000s, 048.0C,00002191
2022-07-18 17:56:03 r, 00.00m,0000593975Hz,0000000000c,0000000.000s, 048.0C,00002191
2022-07-18 18:06:04 r, 00.00m,0000594002Hz,0000000000c,0000000.000s, 048.0C,00002191
2022-07-18 18:16:06 r, 00.00m,0000594056Hz,0000000000c,0000000.000s, 047.7C,00002191
2022-07-18 18:26:03 r, 00.00m,0000594075Hz,0000000000c,0000000.000s, 047.3C,00002191
2022-07-18 18:36:06 r, 00.00m,0000594192Hz,0000000000c,0000000.000s, 047.3C,00002191
2022-07-18 18:46:04 r, 00.00m,0000594207Hz,0000000000c,0000000.000s, 047.0C,00002191
2022-07-18 18:56:03 r, 00.00m,0000594221Hz,0000000000c,0000000.000s, 046.7C,00002191
2022-07-18 19:06:04 r, 00.00m,0000594232Hz,0000000000c,0000000.000s, 046.7C,00002191
2022-07-18 19:16:05 r, 00.00m,0000594211Hz,0000000000c,0000000.000s, 046.0C,00002191
2022-07-18 19:26:03 r, 00.00m,0000594287Hz,0000000000c,0000000.000s, 045.7C,00002191
2022-07-18 19:36:05 r, 00.00m,0000594404Hz,0000000000c,0000000.000s, 045.4C,00002191
2022-07-18 19:46:04 r, 00.00m,0000554061Hz,0000000000c,0000000.000s, 044.8C,00002191
2022-07-18 19:56:03 r, 00.00m,0000555057Hz,0000000000c,0000000.000s, 044.4C,00002191
2022-07-18 20:06:04 r, 00.00m,0000451948Hz,0000000000c,0000000.000s, 043.8C,00002191
2022-07-18 20:16:06 r, 00.00m,0000404862Hz,0000000000c,0000000.000s, 043.1C,00002191
2022-07-18 20:26:03 r, 05.96m,0000349072Hz,0000000000c,0000000.000s, 042.8C,00002191
2022-07-18 20:36:06 r, 06.22m,0000274745Hz,0000000000c,0000000.000s, 042.5C,00002191
2022-07-18 20:46:04 r, 06.51m,0000210273Hz,0000000000c,0000000.000s, 041.5C,00002191
2022-07-18 20:56:04 r, 07.21m,0000110687Hz,0000000000c,0000000.000s, 040.6C,00002191
2022-07-18 21:06:06 r, 07.88m,0000059479Hz,0000000000c,0000000.000s, 039.9C,00002191
2022-07-18 21:16:04 r, 08.42m,0000036109Hz,0000000000c,0000000.000s, 039.3C,00002191
2022-07-18 21:26:04 r, 09.01m,0000021082Hz,0000000000c,0000000.000s, 038.6C,00002191
2022-07-18 21:36:04 r, 09.40m,0000014680Hz,0000000000c,0000000.000s, 038.0C,00002191
2022-07-18 21:46:06 r, 11.26m,0000002662Hz,0000000000c,0000000.000s, 037.7C,00002191
2022-07-18 21:56:04 r, 12.49m,0000000852Hz,0000000000c,0000000.000s, 037.3C,00002191
2022-07-18 22:06:05 r, 14.19m,0000000177Hz,0000000000c,0000000.000s, 037.0C,00002191
2022-07-18 22:16:04 r, 15.38m,0000000053Hz,0000007802c,0000000.017s, 037.0C,00002191
2022-07-18 22:26:04 r, 16.74m,0000000017Hz,0000027368c,0000000.059s, 036.7C,00002191
2022-07-18 22:36:06 r, 18.00m,0000000006Hz,0000086762c,0000000.188s, 036.7C,00002191
2022-07-18 22:46:04 r, 19.15m,0000000002Hz,0000250482c,0000000.544s, 036.4C,00002191
2022-07-18 22:56:04 r, 20.06m,0000000001Hz,0000573717c,0000001.245s, 036.0C,00002191
2022-07-18 23:06:06 r, 20.10m,0000000001Hz,0000597125c,0000001.296s, 036.0C,00002191
2022-07-18 23:16:04 r, 20.60m,0000000000Hz,0000945314c,0000002.051s, 035.7C,00002191
2022-07-18 23:26:04 r, 20.67m,0000000000Hz,0001001616c,0000002.174s, 035.7C,00002191
2022-07-18 23:36:04 r, 20.81m,0000000000Hz,0001145949c,0000002.487s, 035.7C,00002191
2022-07-18 23:46:05 r, 20.65m,0000000000Hz,0000982798c,0000002.133s, 035.4C,00002191
2022-07-18 23:56:04 r, 21.26m,0000000000Hz,0001709465c,0000003.710s, 035.4C,00002191
